sat.trackr.live / text

‹ back to catalog

STARLINK-31677

NORAD 59749 · 2024-090V

PAYLOAD ACTIVE UNKNOWN

§ Identity

Operator
Country
US
Launch date
2024-05-13
Launch site
AFETR
Launch vehicle
Mass (kg)
RCS (m²)

Purposes: comms

External: N2YO · Heavens-Above · Gunter

§ Orbital elements

Epoch: 2026-09-21T02:34:58.512288Z

Period
94.27 min
Inclination
43.0045°
Eccentricity
0.0000828
Mean motion
15.27575779 rev/d
Perigee alt
482.5 km
Apogee alt
483.6 km
Semi-major
6,861.2 km
B*
6.5011e-5
RAAN
160.1452°
Arg perigee
268.5175°
Mean anomaly
91.5581°
Rev number
13,331

§ Raw data

STARLINK-316771 59749U 24090V   26264.10762167  .00001527  00000+0  65011-4 0  99902 59749  43.0045 160.1452 0000828 268.5175  91.5581 15.27575779133318

JSON: /api/v1/satellites/59749 · /tle

For live sub-satellite position, see the globe view (requires WebGL).

§ Visibility from observer

Set your observer location to see the next 7 days of passes ≥ 10°. The values pass through the URL so the page stays shareable.

No JS? Fill the form by hand. The geolocation button needs JavaScript.